Flag for U.S.A. Weather past 2 weeks in Dickinson, North Dakota, U.S.A.

Now
70 °F

Sunny.


Feels Like: 77 °F
Forecast: 52 / 82 °F
Wind: 6 mph from Northeast

Location: Dickinson Municipal Airport

Current Time: Aug 2, 2015 at 8:51:07 PM

Latest Report: Aug 2, 2015 at 7:56 PM


Visibility: 10 mi

Pressure: 29.94 "Hg (27.49 "Hg at 735m altitude)

Humidity: 47%

Dew point: 49 °F

Location of DickinsonLocation

Historic Weather in Dickinson — Graph

°F

Dickinson temperature yesterday

Maximum temperature yesterday: 93 °F (at 3:56 PM)
Minimum temperature yesterday: 52 °F (at 4:56 AM)
Average temperature yesterday: 73 °F

Past Weeks' High & Low Weather Summary

 TemperatureHumidityPressure
High94 °F (Jul 26, 1:56 PM)97% (Jul 24, 6:03 AM)30.16 "Hg (Jul 24, 6:03 AM)
Low50 °F (Jul 28, 10:56 PM)14% (Aug 1, 3:56 PM)29.54 "Hg (Jul 27, 7:56 PM)
Average71 °F57%29.87 "Hg
* Reported Jul 18 7:56 PM — Aug 2 7:56 PM, Dickinson, Weather by CustomWeather, © 2015

Note: Actual official high and low records may vary slightly from our data, if they occured in-between our weather recording intervals... More about our weather records

Advertising

Dickinson weather history for previous 24 hours

 ConditionsComfort  
Time TempWeatherWind HumidityBarometerVisibility
7:56 PM
Sun, Aug 2
70 °FSunny.6 mph47%29.94 "Hg10 mi
6:56 PM77 °FSunny.10 mph35%29.93 "Hg10 mi
5:56 PM79 °FSunny.9 mph31%29.94 "Hg10 mi
4:56 PM81 °FSunny.9 mph28%29.94 "Hg10 mi
3:56 PM82 °FSunny.14 mph28%29.93 "Hg10 mi
2:56 PM81 °FSunny.13 mph29%29.94 "Hg10 mi
1:56 PM80 °FSunny.13 mph35%29.94 "Hg10 mi
12:56 PM78 °FSunny.8 mph37%29.94 "Hg10 mi
11:56 AM76 °FSunny.8 mph42%29.94 "Hg10 mi
10:56 AM74 °FSunny.14 mph48%29.96 "Hg10 mi
9:56 AM73 °FSunny.13 mph48%29.96 "Hg10 mi
8:56 AM70 °FSunny.9 mph55%29.95 "Hg10 mi
7:56 AM62 °FSunny.7 mph78%29.93 "Hg10 mi
6:56 AM56 °FSunny.7 mph90%29.90 "Hg10 mi
5:56 AM50 °FSunny.6 mph93%29.89 "Hg10 mi
4:56 AM53 °FClear.6 mph89%29.86 "Hg10 mi
3:56 AM55 °FClear.6 mph83%29.84 "Hg10 mi
2:56 AM57 °FClear.6 mph81%29.84 "Hg10 mi
1:56 AM64 °FClear.9 mph65%29.81 "Hg10 mi
12:56 AM64 °FClear.7 mph68%29.80 "Hg10 mi
11:56 PM
Sat, Aug 1
65 °FClear.10 mph51%29.78 "Hg10 mi
10:56 PM65 °FClear.6 mph44%29.77 "Hg10 mi
9:56 PM64 °FClear.7 mph49%29.77 "Hg10 mi
8:56 PM72 °FClear.8 mph35%29.74 "Hg10 mi
Weather by CustomWeather, © 2015

See weather overviewHow to use our weather pages